This demonstration page uses our WeatherBlox Daily Observations layout. Learn more.

Left ArrowRight Arrow

30.21309, -93.2044

Hourly Observations for February 19, 2022

Temp ( °F °C ) Dew Point ( °F °C ) Humidity (%) Winds ( mph kmh ) Pressure ( in mb ) Visibility ( mi km ) Precip ( " mm )
12:15 am 00:15 Clear 44 6.4 36 2.1 74 74 NNE 5 7 30.35 1028 10 16 0.00 0.00
12:35 am 00:35 Clear 43 5.9 35 1.9 76 76 NNE 6 9 30.35 1028 10 16 0.00 0.00
12:55 am 00:55 Clear 42 5.6 35 1.4 75 75 NNE 7 11 30.35 1028 10 16 0.00 0.00
1:15 am 01:15 Clear 42 5.6 34 1 73 73 NNE 7 11 30.34 1027 10 16 0.00 0.00
1:35 am 01:35 Clear 41 5.2 33 0.7 73 73 NNE 6 9 30.35 1028 10 16 0.00 0.00
1:55 am 01:55 Clear 41 5 33 0.4 72 72 NNE 7 11 30.35 1028 10 16 0.00 0.00
2:15 am 02:15 Clear 41 4.9 32 0.2 72 72 NNE 7 11 30.35 1028 10 16 0.00 0.00
2:35 am 02:35 Clear 41 4.8 33 0.3 73 73 NNE 7 11 30.35 1028 10 16 0.00 0.00
2:55 am 02:55 Clear 41 4.8 32 0.2 72 72 NNE 9 15 30.36 1028 10 16 0.00 0.00
3:15 am 03:15 Clear 40 4.6 33 0.3 74 74 NNE 8 13 30.35 1028 10 16 0.00 0.00
3:35 am 03:35 Clear 40 4.3 33 0.3 75 75 NNE 8 13 30.36 1028 10 16 0.00 0.00
3:55 am 03:55 Clear 39 4.1 32 0.2 76 76 NNE 7 11 30.36 1028 10 16 0.00 0.00
4:15 am 04:15 Clear 39 3.8 32 0 77 77 NNE 7 11 30.36 1028 10 16 0.00 0.00
4:35 am 04:35 Clear 38 3.5 32 -0.2 77 77 NNE 8 13 30.36 1028 10 16 0.00 0.00
4:55 am 04:55 Clear 38 3.4 32 -0.2 78 78 NNE 8 13 30.37 1028 10 16 0.00 0.00
5:15 am 05:15 Clear 38 3.3 31 -0.5 76 76 NNE 7 11 30.38 1029 10 16 0.00 0.00
5:35 am 05:35 Clear 38 3.2 30 -0.9 75 75 NNE 8 13 30.39 1029 10 16 0.00 0.00
6:00 am 06:00 Mostly Clear 37 3 30 -1 75 75 NNE 9 15 30.40 1029 10 16 0.00 0.00
6:53 am 06:53 Mostly Sunny 36 2 30 -1 81 81 NE 7 11 30.42 1030 10 16 0.00 0.00
7:51 am 07:51 Mostly Sunny 39 4 30 -1 70 70 NE 7 11 30.43 1030 10 16 0.00 0.00
8:55 am 08:55 Mostly Sunny 45 7 32 0 61 61 NE 5 7 30.45 1031 10 16 0.00 0.00
9:45 am 09:45 Mostly Sunny 50 10 28 -2 43 43 NE 10 17 30.46 1031 10 16 0.00 0.00
10:55 am 10:55 Mostly Sunny 55 13 27 -3 33 33 NE 12 19 30.45 1031 10 16 0.00 0.00
11:55 am 11:55 Mostly Sunny 55 13 23 -5 28 28 NNE 8 13 30.43 1030 10 16 0.00 0.00
12:45 pm 12:45 Mostly Sunny 61 16 25 -4 25 25 NNE 9 15 30.41 1030 10 16 0.00 0.00
1:55 pm 13:55 Mostly Sunny 63 17 25 -4 24 24 ENE 12 19 30.36 1028 10 16 0.00 0.00
3:45 pm 15:45 Mostly Sunny 64 18 27 -3 24 24 NNE 6 9 30.34 1027 10 16 0.00 0.00
4:50 pm 16:50 Mostly Sunny 63 17 28 -2 27 27 ENE 6 9 30.34 1027 10 16 0.00 0.00
5:50 pm 17:50 Mostly Sunny 55 13 30 -1 38 38 E 8 13 30.34 1027 10 16 0.00 0.00
6:45 pm 18:45 Mostly Clear 52 11 32 0 47 47 E 7 11 30.34 1027 10 16 0.00 0.00
7:45 pm 19:45 Mostly Clear 52 11 34 1 50 50 Calm 30.35 1028 10 16 0.00 0.00
8:55 pm 20:55 Mostly Clear 48 9 36 2 62 62 Calm 30.36 1028 10 16 0.00 0.00
9:45 pm 21:45 Mostly Clear 48 9 36 2 62 62 Calm 30.36 1028 10 16 0.00 0.00
10:15 pm 22:15 Clear 49 9.7 35 1.7 58 58 Calm 30.36 1028 10 16 0.00 0.00
10:35 pm 22:35 Clear 47 8.1 37 3 71 71 Calm 30.35 1028 10 16 0.00 0.00
10:55 pm 22:55 Clear 46 7.6 37 2.5 70 70 Calm 30.35 1028 10 16 0.00 0.00
11:15 pm 23:15 Clear 45 7.4 37 2.6 72 72 Calm 30.35 1028 10 16 0.00 0.00
11:35 pm 23:35 Clear 44 6.4 37 2.5 76 76 SSE 5 7 30.35 1028 10 16 0.00 0.00
11:55 pm 23:55 Clear 42 5.7 37 2.6 81 81 Calm 30.34 1027 10 16 0.00 0.00

Powered by AerisWeather